Regional Weather Roundup
Issued by NWS Albany, NY

Home | Current Version | Previous Version | Graphics & Text | Print | Product List | Glossary Off
Versions: 1 2 3 4 5 6 7 8 9 10 11 12 13 14 15 16 17 18 19 20 21 22 23 24 25 26 27 28 29 30 31 32 33 34 35 36 37 38 39 40 41 42 43 44 45 46 47 48 49 50

000
ASUS41 KALY 301310
RWRALY

NEW YORK STATE HOURLY WEATHER ROUNDUP
NATIONAL WEATHER SERVICE ALBANY NY
900 AM EDT SUN AUG 30 2015

NOTE: "FAIR" INDICATES FEW OR NO CLOUDS BELOW 12,000 FEET WITH NO
SIGNIFICANT WEATHER AND/OR NO OBSTRUCTIONS TO VISIBILITY.

NYZ032-033-038>043-046>054-057>066-NYZ062>081-301400-
EAST


CITY           SKY/WX    TMP DP  RH WIND       PRES   REMARKS
ALBANY         PTSUNNY   68  61  78 S5        30.10R
GLENS FALLS    PTSUNNY   66  60  81 CALM      30.10R
POUGHKEEPSIE   CLOUDY    73  64  73 SW3       30.09F
NEWBURGH       MOSUNNY   70  66  88 VRB6      30.12S
MONTGOMERY     CLOUDY    70  65  84 S6        30.11S
WHITE PLAINS   SUNNY     73  64  73 W5        30.11S
ISLIP          MOSUNNY   76  65  68 SW5       30.09S
NEW YORK CITY  MOSUNNY   76  63  64 CALM      30.10S
CENTRAL PARK   SUNNY     75  62  64 W5        30.13S
$$

NYZ005>009-017-018-044>046-055-056-301400-
CENTRAL


CITY           SKY/WX    TMP DP  RH WIND       PRES   REMARKS
FULTON         CLOUDY    68  62  81 S3        30.09S
SYRACUSE       CLOUDY    68  62  81 CALM      30.08F
ROME           PTSUNNY   66  61  84 E5        30.10F
ELMIRA         CLOUDY    65  63  93 CALM      30.11S
BINGHAMTON     CLOUDY    63  60  90 CALM      30.13S
MONTICELLO     PTSUNNY   63  63 100 CALM      30.16S
$$

NYZ026>034-041>043-301400-
NORTH


CITY           SKY/WX    TMP DP  RH WIND       PRES   REMARKS
WATERTOWN      PTSUNNY   67  60  78 CALM      30.09S
FORT DRUM      NOT AVBL
MASSENA        SUNNY     67  61  81 SW8       30.09S
SARANAC LAKE   PTSUNNY   64  58  80 SW6       30.12S
PLATTSBURGH    MOSUNNY   70  60  70 SW6       30.07F
$$

NYZ001>004-010>016-019>021-301400-
WEST


CITY           SKY/WX    TMP DP  RH WIND       PRES   REMARKS
NIAGARA FALLS  CLOUDY    68  63  84 SW3       30.09R
BUFFALO        CLOUDY    68  62  81 SW5       30.09R
DUNKIRK        CLOUDY    69  64  84 SW6       30.10R
JAMESTOWN      CLOUDY    63  61  94 S6        30.13S
WELLSVILLE     CLOUDY    65  61  87 SW9       30.17S
ROCHESTER      CLOUDY    68  63  84 W3        30.09S
PENN YAN       CLOUDY    67  63  87 SW5       30.10S
$$

             KEY
       WCI = WIND CHILL INDEX
       VSB = VISIBILITY
       HX  = HEAT INDEX
$$


USA.gov is the U.S. government's official web portal to all federal, state and local government web resources and services.